SCP
-0 -0 -0 0 0 -0 0 0 -0 0 0 0 -0 -0 0 0 0 0 0 0 0 0 0 0 -0 -0 0 0 0 0 0 0 0
-0 -0 0 0 0 0 0 0 0 0 0 0 0 -0 0 0 0 0 0 0 -0 0 0 0 0 0 -0 0 0 0 0 0 0
0 0 -0 0 0 0 0 0 0 0 0 0 0 0 0 0 0 0 0 0 0 0 0 0 0 0 0 -0 -0 -0 0 0 0
0 0 0 0 0 0 0 0 0 0 0 0 0 0 0 0 0 0 0 0 0 0 0 0 0 0 0 0 0 0 0 0 0
0 0 -0 0 0 0 0 0 0 0 0 0 0 0 0 0 0 0 0 0 0 0 0 0 0 0 0 0 0 0 0 0 0
-0 0 0 0 0 0 0 0 0 0 0 0 0 0 0 0 0 0 0 0 0 0 0 0 0 0 0 0 0 0 0 0 0
0 0 0 0 0 0 0 1 1 1 0 0 0 0 0 0 0 0 0 0 0 0 0 0 0 0 0 0 0 0 0 0 0
0 -0 0 0 0 0 1 1 1 1 0 0 0 0 0 0 0 0 0 0 0 0 0 0 0 0 0 0 0 0 0 0 0
-0 -0 -0 0 0 0 0 0 1 1 1 1 1 1 0 0 0 0 0 0 0 0 0 0 0 0 0 0 0 0 0 0 0
0 0 0 0 0 -0 1 0 1 1 1 1 2 1 1 0 1 0 0 0 0 0 0 0 1 0 0 0 0 0 0 0 0
0 0 0 -0 -0 -0 1 1 2 2 1 2 2 3 2 2 1 1 1 0 1 1 1 1 1 1 1 1 0 0 0 0 0
0 0 0 0 0 0 0 2 2 3 2 2 2 1 1 1 1 1 1 1 1 1 2 2 2 2 1 1 0 0 0 0 0
0 0 0 0 0 0 0 0 2 2 2 2 1 1 2 2 2 2 1 1 1 1 2 1 0 0 0 0 0 0 0 0 0
0 0 0 0 0 0 0 -0 -0 1 1 1 1 1 1 1 1 1 1 1 1 1 1 0 0 0 0 0 0 0 0 0 0
0 0 0 0 0 0 0 0 0 -0 0 0 1 1 1 1 0 0 0 0 0 0 0 0 0 0 0 0 0 0 0 0 0
0 0 0 0 0 0 0 0 0 0 0 0 0 0 0 0 0 0 0 0 0 0 0 0 -0 0 0 0 0 0 0 0 0
0 0 0 0 0 0 0 0 0 0 0 0 0 0 0 0 0 0 0 0 0 0 0 0 0 0 -0 0 0 0 0 0 0
0 0 0 0 0 0 0 0 0 0 0 0 0 0 0 0 0 0 0 0 0 0 0 0 0 0 0 0 0 0 0 0 0
0 0 0 0 0 0 0 0 0 0 0 0 0 0 0 0 0 0 0 0 0 0 0 0 0 0 0 0 0 0 0 0 0
0 0 0 0 0 0 0 0 0 0 0 0 0 0 0 0 0 0 0 0 0 0 0 0 0 0 0 0 0 0 0 0 0
Wind_Speed_500mb
65 56 51 44 54 53 50 48 41 39 41 39 41 39 33 30 29 26 22 23 22 19 17 16 18 12 16 15 12 9 11 11 8
51 67 61 43 55 39 48 46 42 41 40 41 40 39 38 35 34 33 29 25 26 20 21 13 18 18 19 20 18 16 14 12 14
38 51 65 63 59 53 47 44 43 40 41 41 41 39 39 36 34 33 37 26 28 33 23 35 8 17 19 21 23 21 22 19 21
26 45 76 72 47 54 49 49 48 42 41 39 41 39 38 37 36 34 34 29 32 33 27 24 25 27 22 24 25 27 30 28 31
7 14 73 59 61 56 53 45 51 44 43 41 39 40 40 39 36 34 32 33 32 30 32 30 29 32 29 27 24 25 25 23 22
12 2 15 24 50 57 56 53 44 46 46 44 39 38 40 41 39 37 35 34 34 33 33 32 27 28 25 27 24 25 24 26 26
18 5 11 12 23 41 52 55 51 51 47 44 42 40 40 43 41 38 34 34 34 32 34 35 33 28 27 29 28 25 27 31 32
11 29 32 20 27 41 35 36 47 52 49 47 44 42 40 40 39 36 36 33 33 31 31 33 33 29 29 29 26 25 29 29 30
13 19 21 32 33 51 48 54 48 47 52 49 46 44 39 36 34 33 34 35 35 36 35 34 33 28 29 29 32 39 39 35 34
7 7 9 34 34 37 50 56 53 43 46 46 45 43 38 37 34 33 35 33 34 38 36 35 38 31 30 26 35 37 33 30 29
6 14 11 9 15 28 34 38 30 42 38 44 45 41 38 40 33 30 31 33 40 41 39 40 42 39 32 27 38 28 28 30 28
6 9 15 19 12 27 28 38 43 39 39 39 38 35 38 30 26 31 36 45 43 45 47 45 41 38 37 30 33 29 24 22 22
6 7 17 17 19 23 33 42 39 36 28 33 32 19 21 23 33 36 37 34 34 40 34 39 37 39 37 37 43 31 30 31 21
7 10 15 20 24 29 30 31 36 36 26 25 24 36 34 15 16 17 17 15 18 23 35 45 47 47 49 43 39 36 35 32 28
9 13 19 23 30 34 30 21 24 34 39 45 42 35 31 23 19 17 15 11 14 20 27 37 40 34 32 27 26 28 20 18 19
10 13 24 21 24 26 26 30 39 40 37 35 36 36 35 30 25 21 17 17 21 17 25 24 21 12 17 15 8 4 3 6 10
9 17 23 30 28 28 29 28 32 38 37 35 32 26 24 23 21 18 19 19 14 13 15 16 14 10 5 6 8 7 5 7 9
13 18 22 24 28 30 33 30 36 40 34 27 24 22 23 22 20 16 15 11 13 14 10 7 8 12 11 9 4 4 8 8 9
10 19 21 26 32 33 32 29 32 30 25 19 22 25 24 20 16 16 18 13 8 7 7 5 6 8 6 4 3 2 1 4 5
19 21 25 23 25 29 29 30 31 31 31 30 30 28 27 25 20 19 16 13 11 7 6 6 4 2 1 2 3 4 4 5 6
Wind_Direction_500mb
203 216 215 212 183 199 182 190 187 193 189 200 200 201 198 203 209 204 202 209 200 203 207 203 223 224 217 232 235 251 252 254 276
195 213 217 211 200 200 184 184 189 196 193 195 197 201 205 201 206 202 208 214 220 214 231 216 226 215 224 227 235 241 247 264 248
200 194 215 214 197 182 178 193 192 197 196 197 197 199 204 206 207 203 197 221 193 216 216 227 247 209 227 236 244 252 254 251 259
262 205 199 211 199 185 181 196 187 194 197 198 196 200 202 202 209 214 219 225 228 224 220 223 232 231 229 235 244 251 249 232 233
266 207 196 203 198 190 188 205 181 192 196 200 200 200 203 206 207 211 218 221 223 225 224 233 240 241 233 241 250 250 250 254 248
88 127 209 231 194 193 190 196 196 197 198 198 200 201 206 207 209 211 212 220 217 220 224 231 235 238 232 239 243 248 251 257 251
79 71 222 285 238 230 199 188 198 201 202 199 198 201 205 211 211 213 217 218 220 222 224 231 228 242 244 236 229 247 254 254 240
178 80 351 281 250 232 217 195 198 203 202 201 198 199 203 209 213 213 216 218 221 223 227 234 233 235 241 242 237 247 247 252 249
152 191 172 282 266 223 225 217 205 204 202 201 197 200 202 204 210 213 215 219 217 234 226 227 242 239 240 234 223 234 244 252 257
190 208 225 226 228 221 212 208 204 200 201 196 196 196 199 206 210 218 220 220 226 230 232 226 232 233 239 241 242 247 247 250 253
152 209 180 152 206 182 198 198 185 193 195 196 194 190 196 201 208 219 231 234 241 240 236 236 233 232 232 229 243 248 246 249 253
139 157 177 177 190 189 186 191 187 186 184 185 196 189 198 213 235 253 251 257 250 248 242 240 235 230 221 216 245 244 238 248 254
116 131 161 171 167 156 176 173 176 177 180 181 177 178 201 210 226 237 238 232 238 244 241 239 232 241 228 222 232 235 258 269 252
103 135 132 162 159 168 145 162 176 189 213 222 231 234 237 230 247 219 231 241 239 247 248 244 251 241 242 235 244 254 258 257 253
146 169 125 124 138 147 137 134 168 166 179 196 198 204 202 205 212 230 220 214 228 239 245 254 238 237 255 249 251 245 229 242 255
133 156 155 130 120 140 116 126 143 143 142 139 148 162 164 167 177 168 153 137 125 94 97 93 79 97 118 119 117 93 8 324 309
110 137 136 136 141 138 135 135 148 140 136 150 154 157 162 163 167 165 155 154 143 130 135 129 125 133 147 168 180 180 227 249 263
107 111 118 125 141 146 140 142 150 154 152 153 149 149 147 149 149 155 175 165 148 140 148 169 188 199 185 181 186 256 278 290 298
116 112 109 119 119 120 129 136 144 150 150 140 139 139 137 137 140 140 140 140 145 145 161 198 213 236 242 256 240 274 318 287 283
127 107 107 103 109 113 120 126 124 124 123 126 126 132 131 123 117 122 129 114 94 80 89 76 58 46 291 190 198 183 229 256 263
Wind_Speed_850mb
65 56 51 44 54 53 50 48 41 39 41 39 41 39 33 30 29 26 22 23 22 19 17 16 18 12 16 15 12 9 11 11 8
51 67 61 43 55 39 48 46 42 41 40 41 40 39 38 35 34 33 29 25 26 20 21 13 18 18 19 20 18 16 14 12 14
38 51 65 63 59 53 47 44 43 40 41 41 41 39 39 36 34 33 37 26 28 33 23 35 8 17 19 21 23 21 22 19 21
26 45 76 72 47 54 49 49 48 42 41 39 41 39 38 37 36 34 34 29 32 33 27 24 25 27 22 24 25 27 30 28 31
7 14 73 59 61 56 53 45 51 44 43 41 39 40 40 39 36 34 32 33 32 30 32 30 29 32 29 27 24 25 25 23 22
12 2 15 24 50 57 56 53 44 46 46 44 39 38 40 41 39 37 35 34 34 33 33 32 27 28 25 27 24 25 24 26 26
18 5 11 12 23 41 52 55 51 51 47 44 42 40 40 43 41 38 34 34 34 32 34 35 33 28 27 29 28 25 27 31 32
11 29 32 20 27 41 35 36 47 52 49 47 44 42 40 40 39 36 36 33 33 31 31 33 33 29 29 29 26 25 29 29 30
13 19 21 32 33 51 48 54 48 47 52 49 46 44 39 36 34 33 34 35 35 36 35 34 33 28 29 29 32 39 39 35 34
7 7 9 34 34 37 50 56 53 43 46 46 45 43 38 37 34 33 35 33 34 38 36 35 38 31 30 26 35 37 33 30 29
6 14 11 9 15 28 34 38 30 42 38 44 45 41 38 40 33 30 31 33 40 41 39 40 42 39 32 27 38 28 28 30 28
6 9 15 19 12 27 28 38 43 39 39 39 38 35 38 30 26 31 36 45 43 45 47 45 41 38 37 30 33 29 24 22 22
6 7 17 17 19 23 33 42 39 36 28 33 32 19 21 23 33 36 37 34 34 40 34 39 37 39 37 37 43 31 30 31 21
7 10 15 20 24 29 30 31 36 36 26 25 24 36 34 15 16 17 17 15 18 23 35 45 47 47 49 43 39 36 35 32 28
9 13 19 23 30 34 30 21 24 34 39 45 42 35 31 23 19 17 15 11 14 20 27 37 40 34 32 27 26 28 20 18 19
10 13 24 21 24 26 26 30 39 40 37 35 36 36 35 30 25 21 17 17 21 17 25 24 21 12 17 15 8 4 3 6 10
9 17 23 30 28 28 29 28 32 38 37 35 32 26 24 23 21 18 19 19 14 13 15 16 14 10 5 6 8 7 5 7 9
13 18 22 24 28 30 33 30 36 40 34 27 24 22 23 22 20 16 15 11 13 14 10 7 8 12 11 9 4 4 8 8 9
10 19 21 26 32 33 32 29 32 30 25 19 22 25 24 20 16 16 18 13 8 7 7 5 6 8 6 4 3 2 1 4 5
19 21 25 23 25 29 29 30 31 31 31 30 30 28 27 25 20 19 16 13 11 7 6 6 4 2 1 2 3 4 4 5 6
Wind_Direction_850mb
203 216 215 212 183 199 182 190 187 193 189 200 200 201 198 203 209 204 202 209 200 203 207 203 223 224 217 232 235 251 252 254 276
195 213 217 211 200 200 184 184 189 196 193 195 197 201 205 201 206 202 208 214 220 214 231 216 226 215 224 227 235 241 247 264 248
200 194 215 214 197 182 178 193 192 197 196 197 197 199 204 206 207 203 197 221 193 216 216 227 247 209 227 236 244 252 254 251 259
262 205 199 211 199 185 181 196 187 194 197 198 196 200 202 202 209 214 219 225 228 224 220 223 232 231 229 235 244 251 249 232 233
266 207 196 203 198 190 188 205 181 192 196 200 200 200 203 206 207 211 218 221 223 225 224 233 240 241 233 241 250 250 250 254 248
88 127 209 231 194 193 190 196 196 197 198 198 200 201 206 207 209 211 212 220 217 220 224 231 235 238 232 239 243 248 251 257 251
79 71 222 285 238 230 199 188 198 201 202 199 198 201 205 211 211 213 217 218 220 222 224 231 228 242 244 236 229 247 254 254 240
178 80 351 281 250 232 217 195 198 203 202 201 198 199 203 209 213 213 216 218 221 223 227 234 233 235 241 242 237 247 247 252 249
152 191 172 282 266 223 225 217 205 204 202 201 197 200 202 204 210 213 215 219 217 234 226 227 242 239 240 234 223 234 244 252 257
190 208 225 226 228 221 212 208 204 200 201 196 196 196 199 206 210 218 220 220 226 230 232 226 232 233 239 241 242 247 247 250 253
152 209 180 152 206 182 198 198 185 193 195 196 194 190 196 201 208 219 231 234 241 240 236 236 233 232 232 229 243 248 246 249 253
139 157 177 177 190 189 186 191 187 186 184 185 196 189 198 213 235 253 251 257 250 248 242 240 235 230 221 216 245 244 238 248 254
116 131 161 171 167 156 176 173 176 177 180 181 177 178 201 210 226 237 238 232 238 244 241 239 232 241 228 222 232 235 258 269 252
103 135 132 162 159 168 145 162 176 189 213 222 231 234 237 230 247 219 231 241 239 247 248 244 251 241 242 235 244 254 258 257 253
146 169 125 124 138 147 137 134 168 166 179 196 198 204 202 205 212 230 220 214 228 239 245 254 238 237 255 249 251 245 229 242 255
133 156 155 130 120 140 116 126 143 143 142 139 148 162 164 167 177 168 153 137 125 94 97 93 79 97 118 119 117 93 8 324 309
110 137 136 136 141 138 135 135 148 140 136 150 154 157 162 163 167 165 155 154 143 130 135 129 125 133 147 168 180 180 227 249 263
107 111 118 125 141 146 140 142 150 154 152 153 149 149 147 149 149 155 175 165 148 140 148 169 188 199 185 181 186 256 278 290 298
116 112 109 119 119 120 129 136 144 150 150 140 139 139 137 137 140 140 140 140 145 145 161 198 213 236 242 256 240 274 318 287 283
127 107 107 103 109 113 120 126 124 124 123 126 126 132 131 123 117 122 129 114 94 80 89 76 58 46 291 190 198 183 229 256 263